Location: Baix
(44.7118°N, 4.7648°E)
Time: 13:27:24
(UTC+00:00)

Vanguard 2 Rocket - Pass Details

Date: 02 December 2020
Orbit: 554 x 3325 km, 32.9° (Epoch: 23 January)

Event Time Altitude Azimuth Distance (km) Brightness Sun altitude
Rises 09:58:22 0° 266° (W) 7,295 11.3 20.0°
Reaches altitude 10° 10:03:30 10° 262° (W) 6,282 11.1 20.3°
Maximum altitude 10:22:09 52° 195° (SSW) 3,306 10.7 21.4°
Drops below altitude 10° 10:35:07 10° 125° (SE) 4,502 11.3 22.0°
Sets 10:38:07 0° 120° (ESE) 5,179 11.4 22.2°
